Regional Weather Roundup
Issued by NWS Huntsville, AL

Home | Current Version | Previous Version | Text Only | Print | Product List | Glossary On
Versions: 1 2 3 4 5 6 7 8 9 10 11 12 13 14 15 16 17 18 19 20 21 22 23 24 25 26 27 28 29 30 31 32 33 34 35 36 37 38 39 40 41 42 43 44 45 46 47 48 49 50
000
ASUS44 KHUN 171310
RWRHUN

WEATHER ROUNDUP FOR THE TENNESSEE VALLEY
NATIONAL WEATHER SERVICE HUNTSVILLE AL
800 AM CDT WED SEP 17 2014

ALZ001>004-171400-
NORTHWEST ALABAMA

CITY           SKY/WX    TMP DP  RH WIND       PRES   REMARKS
COURTLAND HCN    N/A     64 N/A N/A CALM        N/A
RUSSELLVILLE     N/A     61 N/A N/A MISG        N/A
SHOALS AIRPORT SUNNY     67  59  75 CALM      30.03F
SHOALS TVA RES   N/A     63 N/A N/A MISG        N/A
$$

ALZ005>007-016-171400-
NORTH CENTRAL ALABAMA

CITY           SKY/WX    TMP DP  RH WIND       PRES   REMARKS
CULLMAN AG STN   N/A     63 N/A N/A CALM        N/A
DECATUR AP     SUNNY     66  60  81 N6        30.02S
HUNTSVILLE AP  MOSUNNY   69  60  73 N3        30.01S
HUN NWS/UAH      N/A     67  59  77 N3          N/A
REDSTONE ARSN  SUNNY     66  61  82 N3        30.03
VINEMONT AP    FOG       62  62  99 CALM      30.04S VSB 1/2
$$

ALZ008>010-171400-
NORTHEAST ALABAMA

CITY           SKY/WX    TMP DP  RH WIND       PRES   REMARKS
ALBERTVILLE    PTSUNNY   64  64 100 N3        30.01S FOG
FORT PAYNE     PTSUNNY   64  59  82 CALM      30.01R
SCOTTSBORO AP  CLOUDY    68  63  83 CALM      30.02S
SCOTTSBORO HCN   N/A     64 N/A N/A MISG        N/A
VALLEY HEAD      N/A     64 N/A N/A MISG        N/A
$$

TNZ076-096-097-171400-
SOUTHEASTERN MIDDLE TENNESSEE

CITY           SKY/WX    TMP DP  RH WIND       PRES   REMARKS
FAYETTEVILLE   SUNNY     61  57  88 CALM      30.02F
TULLAHOMA      CLOUDY    59  57  94 CALM      30.04S
WINCHESTER     CLOUDY    63  61  94 CALM      30.03S
$$

...SURROUNDING SITES...

CITY           SKY/WX    TMP DP  RH WIND       PRES   REMARKS
ATLANTA        SUNNY     69  63  81 N10       30.00R
ANNISTON       MOSUNNY   71  66  84 CALM      30.00S
BIRMINGHAM     PTSUNNY   70  66  87 NE5       30.02S
CHATTANOOGA    MOSUNNY   67  59  75 N7        30.01S
CORINTH        FAIR      61  59  94 N5        30.02F
DALTON         SUNNY     64  63  94 N6        30.00S
GADSDEN        SUNNY     68  63  83 N6        30.01S
GOLDEN TRNGL   CLOUDY    66  63  88 N6        30.01S FOG
HALEYVILLE     FAIR      63  61  93 CALM      30.05S FOG
JACKSON TN     SUNNY     58  55  90 E5        30.04R FOG
LEWISBURG      CLOUDY    55  55 100 N3        30.04S
MEMPHIS        PTSUNNY   65  59  81 E7        30.02S
MURFREESBORO   CLOUDY    57  56  97 CALM      30.04S VSB 1/2
NASHVILLE      CLOUDY    58  56  93 NE5       30.05S FOG
OXFORD MS      FAIR      63  59  88 E5        30.03S
ROME           SUNNY     67  62  84 CALM      30.00S
SAVANNAH       SUNNY     59  59 100 CALM      30.04S
TUPELO         SUNNY     65  61  87 NE6       30.01S
TUSCALOOSA     SUNNY     72  65  78 NE7       30.00R
$$

...GULF COAST WEATHER...

CITY           SKY/WX    TMP DP  RH WIND       PRES   REMARKS
GULFPORT       PTSUNNY   73  71  93 CALM      29.96S
PASCAGOULA     PTSUNNY   73  71  93 CALM      29.97R
MOBILE         PTSUNNY   72  71  97 N5        29.98R
PENSACOLA      PTSUNNY   73  72  96 N6        29.95S
DESTIN         MOSUNNY   77  72  84 N5        29.96S
PANAMA CITY    PTSUNNY   74  74 100 E2        29.96R
APPALACHICOLA  PTSUNNY   78  72  81 NE3       29.95R
$$



USA.gov is the U.S. government's official web portal to all federal, state and local government web resources and services.